Regional Weather Roundup
Issued by NWS Cleveland, OH

Home | Current Version | Previous Version | Text Only | Print | Product List | Glossary Off
Versions: 1 2 3 4 5 6 7 8 9 10 11 12 13 14 15 16 17 18 19 20 21 22 23 24 25 26 27 28 29 30 31 32 33 34 35 36 37 38 39 40 41 42 43 44 45 46 47 48 49 50

000
ASUS41 KCLE 270202
RWRCLE
OHIO REGIONAL WEATHER ROUNDUP
NATIONAL WEATHER SERVICE CLEVELAND, OH
900 PM EST FRI DEC 26 2014

NOTE: "FAIR" INDICATES FEW OR NO CLOUDS BELOW 12,000 FEET WITH NO
SIGNIFICANT WEATHER AND/OR OBSTRUCTIONS TO VISIBILITY.

OHZ001>008-015>018-024>027-034-035-043-044-270300-
   NORTHWEST OHIO

CITY           SKY/WX    TMP DP  RH WIND       PRES   REMARKS
DEFIANCE       PTCLDY    41  38  89 S6        30.12F
FINDLAY        MOCLDY    40  35  83 S9        30.13F
TOLEDO EXPRESS MOCLDY    41  36  82 S3        30.12S
TOLEDO EXEC    CLOUDY    39  35  86 S7        30.13F
LIMA           PTCLDY    42  35  76 S8        30.13F
$$

OHZ009>014-019>023-028>033-038-089-270300-
   NORTHEAST OHIO

CITY           SKY/WX    TMP DP  RH WIND       PRES   REMARKS
CLE-HOPKINS    CLOUDY    44  35  70 S9        30.19S
CLE-LAKEFRONT  MOCLDY    47  35  63 S15G21    30.17R
CUY CO. ARPT   PTCLDY    46  37  71 SW9G17    30.18S
LORAIN-ELYRIA  MOCLDY    42  36  79 S9        30.17S
ASHTABULA      CLOUDY    42  34  73 S9        30.17F
AKRON-CANTON   MOCLDY    38  31  76 S7        30.18S
WOOSTER        MOCLDY    37  33  85 S3        30.18F
MANSFIELD      MOCLDY    39  35  86 S7        30.16S
YOUNGSTOWN     CLOUDY    43  33  68 SW8       30.19S
$$

OHZ042-051>053-060>062-070>072-077>081-270300-
  SOUTHWEST OHIO

CITY           SKY/WX    TMP DP  RH WIND       PRES   REMARKS
CINC-COVINGTON CLOUDY    44  32  62 S7        30.17S
CINC-LUNKEN    CLOUDY    42  35  76 CALM      30.19S
HAMILTON       MOCLDY    47  33  58 CALM      30.18F
DAYTON         CLOUDY    46  36  68 S8        30.16F
WRIGHT-PAT AFB CLOUDY    44  36  74 S2        30.16S
DAYTON GENERAL MOCLDY    43  35  73 S6        30.16S
WILMINGTON     CLOUDY    43  34  70 S5        30.17S
$$

OHZ036-037-039>041-045>050-054>059-063>069-073>076-082>088-270300-
  CENTRAL AND SOUTHEAST OHIO

CITY           SKY/WX    TMP DP  RH WIND       PRES   REMARKS
COLUMBUS       CLOUDY    43  34  70 S5        30.18F
OSU AIRPORT    MOCLDY    42  35  76 S5        30.17F
BOLTON FIELD   NOT AVBL
RICKENBACK AFB CLOUDY    42  35  77 S8        30.18S
NEWARK         CLOUDY    40  33  76 CALM      30.18F
MARION         PTCLDY    39  34  82 S9        30.16F
LANCASTER      MOCLDY    41  34  76 CALM      30.19F
ZANESVILLE     CLOUDY    42  32  67 S6        30.20S
NEW PHILLY     MOCLDY    40  32  73 S3        30.22R
$$


USA.gov is the U.S. government's official web portal to all federal, state and local government web resources and services.